Starlink 31310

operational
NORAD ID: 59092 Int'l Des: 2024-041 Owner: SPXS Country: US Constellation: starlink
LEOCIRCULAR

Über Starlink 31310

Beschreibung wird geladen...

Live-Position

3D-Globus wird geladen...

Nächste Überflüge

Höhenverlauf

Altitude vs Time

uPlot chart will show altitude changes over time

Zweizeiliger Elementsatz

1 59092U 24041U 25350.69554513 .00007668 00000-0 28764-3 0 9996
2 59092 43.0014 59.8394 0001008 279.8135 80.2603 15.27607445101575
Epoch: 16. Dez. 2025 • Age: 14 hours

Aktueller Status

Höhe 486.9 km
Geschwindigkeit 7.62 km/s
Subsatellitenpunkt -19.93°S, 152.65°W
Startdatum 29. Feb. 2024
Alter 1.7 years
Typ internet

Technische Details

Klassifizierung Payload
Masse 730.00 kg
Trockenmasse 700.00 kg
Gesamtmasse 730.00 kg
Länge 0.30 m
Durchmesser 4.10 m
Spannweite 29.00 m
Form Box + pan
Hersteller SPXS
Bus-Typ Starlink V2M
Phasenstatus In Orbit
Besitzer/Staat SPXS/US

Große Konstellationen

Loading constellations...